Regional Weather Roundup
Issued by NWS

Home | Current Version | Previous Version | Graphics & Text | Print | Product List | Glossary On
Versions: 1 2 3 4 5 6 7 8 9 10 11 12 13 14 15 16 17 18 19 20 21 22 23 24 25 26 27 28 29 30 31 32 33 34 35 36 37 38 39 40 41 42 43 44 45 46 47 48 49 50
000
ASUS43 KIND 230859
RWRIN

WEATHER ROUNDUP FOR INDIANA
NATIONAL WEATHER SERVICE INDIANAPOLIS IN
500 AM EDT SAT MAY 23 2015

NOTE: "FAIR" INDICATES FEW OR NO CLOUDS BELOW 12,000 FEET WITH NO
SIGNIFICANT WEATHER AND/OR OBSTRUCTIONS TO VISIBILITY.

* - STATION DOES NOT REPORT WEATHER SUCH AS PRECIPITATION OR FOG.

+ - STATION NOT QUALITY CONTROLLED BY THE NATIONAL WEATHER SERVICE.
    USE DATA WITH CAUTION...ESPECIALLY DEWPOINT AND RELATIVE
    HUMIDITY OBSERVATIONS.

INZ001>003-010>013-019-020-231000-
NORTHWEST INDIANA

CITY           SKY/WX    TMP DP  RH WIND       PRES   REMARKS
RENSSELAER +   MOCLDY    52  37  58 E7        30.31R

$$

LMZ046-743>745-231000-
SOUTHERN LAKE MICHIGAN

STATION/POSITION TIME  TEMP    WIND        PRES    WAVE
                       AIR SEA DIR/SP/G            HT
                 (UTC) (F)     (DEG/KT/KT) (MB)    (FT)
BURNS HARBOR     0800   59     140/ 13/ 19 1026.4S
MICHIGAN CITY    0800   53     120/  9/ 10   N/A
5NW MICH CITY    0800   54 51  120/  8/ 10   N/A     1

$$

INZ004-005-014>016-021>024-231000-
NORTH CENTRAL INDIANA

CITY           SKY/WX    TMP DP  RH WIND       PRES   REMARKS
GOSHEN         CLEAR     41  37  86 CALM      30.33R
SOUTH BEND     CLEAR     46  36  68 CALM      30.34R
WARSAW +       CLEAR     43  39  87 CALM      30.33R

$$

INZ006>009-017-018-025>027-231000-
NORTHEAST INDIANA

CITY           SKY/WX    TMP DP  RH WIND       PRES   REMARKS
ANGOLA *+        N/A     41  37  87 CALM      30.34R
FORT WAYNE     PTCLDY    45  40  82 CALM      30.33S

$$

INZ028-029-035-036-043>045-051>053-231000-
WEST CENTRAL INDIANA

CITY           SKY/WX    TMP DP  RH WIND       PRES   REMARKS
CRAWFORDSVL +  CLOUDY    56  32  39 E10       30.28F
GREENCASTLE +  CLOUDY    55  41  58 E5        30.29R
LAFAYETTE      CLOUDY    54  39  57 E9        30.29S
TERRE HAUTE    CLOUDY    58  52  80 E5        30.28R

$$

INZ030>032-037>040-046>048-054>057-064-065-231000-
CENTRAL INDIANA

CITY           SKY/WX    TMP DP  RH WIND       PRES   REMARKS
GREENWOOD *+   CLOUDY    57  39  51 E6        30.30
INDIANAPOLIS   CLOUDY    58  42  55 NE9       30.28S
-EAGLE CREEK   CLOUDY    58  40  51 E5        30.29F
KOKOMO *+      MOCLDY    52  37  58 E6        30.32S
MT COMFORT *+  CLOUDY    54  36  50 E7        30.31S
SHELBYVILLE    CLOUDY    58  45  62 CALM      30.30R

$$

INZ033-034-041-042-049-050-058-059-231000-
EAST CENTRAL INDIANA

CITY           SKY/WX    TMP DP  RH WIND       PRES   REMARKS
MUNCIE         MOCLDY    51  40  65 CALM      30.33R

$$

INZ060-061-067>069-081>083-085>088-231000-
SOUTHWEST INDIANA

CITY           SKY/WX    TMP DP  RH WIND       PRES   REMARKS
EVANSVILLE     CLOUDY    59  55  87 CALM      30.30R
HUNTINGBURG *+ CLOUDY    55  50  82 CALM      30.30R

$$

INZ062-063-066-070>080-084-089>092-231000-
SOUTH CENTRAL AND SOUTHEAST INDIANA

CITY           SKY/WX    TMP DP  RH WIND       PRES   REMARKS
BLOOMINGTON    MOCLDY    53  50  89 CALM      30.29S
MADISON *+     MOCLDY    54  50  87 CALM      30.33R
SEYMOUR +      MOCLDY    54  52  94 CALM      30.31R

$$



USA.gov is the U.S. government's official web portal to all federal, state and local government web resources and services.